Flag for U.S.A. Weather past 2 weeks in Independence, Missouri, U.S.A.

Now
87 °F

Sunny.


Feels Like: 94 °F
Forecast: 74 / 90 °F
Wind: 6 mph from East

Location: Lee's Summit Municipal Airport

Current Time: Aug 3, 2015 at 6:51:01 PM

Latest Report: Aug 3, 2015 at 5:53 PM


Visibility: 10 mi

Pressure: 29.88 "Hg

Humidity: 61%

Dew point: 72 °F

Location of IndependenceLocation

Historic Weather in Independence — Graph

°F

Independence temperature yesterday

Maximum temperature yesterday: 92 °F (at 3:53 PM)
Minimum temperature yesterday: 71 °F (at 4:53 AM)
Average temperature yesterday: 82 °F

Past Weeks' High & Low Weather Summary

 TemperatureHumidityPressure
High94 °F (Jul 24, 3:53 PM)97% (Jul 30, 6:53 AM)30.20 "Hg (Jul 30, 6:53 AM)
Low64 °F (Jul 31, 3:53 AM)36% (Jul 30, 3:53 PM)29.80 "Hg (Aug 2, 6:53 PM)
Average80 °F70%29.95 "Hg
* Reported Jul 19 5:53 PM — Aug 3 5:53 PM, Independence, Weather by CustomWeather, © 2015

Note: Actual official high and low records may vary slightly from our data, if they occured in-between our weather recording intervals... More about our weather records

Advertising

Independence weather history for previous 24 hours

 ConditionsComfort  
Time TempWeatherWind HumidityBarometerVisibility
5:53 PM
Mon, Aug 3
87 °FSunny.6 mph61%29.88 "Hg10 mi
4:53 PM87 °FSunny.10 mph59%29.89 "Hg10 mi
3:53 PM87 °FSunny.9 mph59%29.90 "Hg10 mi
2:53 PM86 °FSunny.12 mph57%29.91 "Hg10 mi
1:53 PM83 °FPassing clouds.12 mph59%29.91 "Hg10 mi
12:53 PM89 °FSunny.6 mph55%29.93 "Hg10 mi
11:53 AM86 °FSunny.3 mph59%29.90 "Hg10 mi
10:53 AM84 °FSunny.5 mph63%29.93 "Hg10 mi
9:53 AM80 °FSunny.5 mph67%29.93 "Hg10 mi
8:53 AM78 °FSunny.3 mph71%29.95 "Hg10 mi
7:53 AM74 °FSunny.No wind79%29.91 "Hg10 mi
6:53 AM69 °FClear.3 mph90%29.89 "Hg10 mi
5:53 AM70 °FClear.5 mph90%29.88 "Hg10 mi
4:53 AM72 °FClear.No wind84%29.89 "Hg10 mi
3:53 AM73 °FPassing clouds.7 mph81%29.89 "Hg10 mi
2:53 AM75 °FClear.5 mph74%29.89 "Hg10 mi
1:53 AM77 °FClear.5 mph64%29.87 "Hg10 mi
12:53 AM78 °FPassing clouds.3 mph69%29.88 "Hg10 mi
11:53 PM
Sun, Aug 2
81 °FPartly cloudy.No wind58%29.89 "Hg10 mi
10:53 PM81 °FClear.9 mph60%29.85 "Hg10 mi
9:53 PM83 °FClear.9 mph59%29.83 "Hg10 mi
8:53 PM84 °FSunny.7 mph57%29.82 "Hg10 mi
7:53 PM86 °FSunny.3 mph55%29.82 "Hg10 mi
6:53 PM89 °FSunny.7 mph46%29.80 "Hg10 mi
Weather by CustomWeather, © 2015

See weather overviewHow to use our weather pages